Location: Dammartin
(48.9032°N, 1.6195°E)
Time: 20:50:10
(UTC+00:00)

Cosmos 2322 - Pass Details

Date: 03 February 2023
Orbit: 841 x 854 km, 71.0° (Epoch: 21 March)

Event Time Altitude Azimuth Distance (km) Brightness Sun altitude
Rises 18:53:13 0° 181° (S) 3,407 6.9 -19.8°
Reaches altitude 10° 18:55:48 10° 173° (S) 2,476 6.1 -20.2°
Enters shadow 19:00:34 38° 118° (ESE) 1,291 4.2 -21.0°
